www.pogodaiklimat.ru

Погода и климат >> Архив погоды >> Бразилия >> Баия >> Итапетинга


ПОГОДА в Итапетинге

  • Прогноз погоды в Итапетинге
  • Монитор погоды в Итапетинге

АРХИВ ПОГОДЫ в Итапетинге

Время (UTC), дата Ветер
(напр.,м/с)
 
Видим.   Явления Облачность Т
(С)
Тd
(С)
f
(%)
Тe
(С)
Тes
(С)
Комфортность P
(гПа)
Po
(гПа)
Тmin
(С)
Tmax
(С)
R
(мм)
R24
(мм)
S
(см)
10 15.05 СЗ 1
{1}
н/о н/о +20.2 +19.2 94 +25 +25 комфорт 1015.1 983.5
11 15.05 ЮЗ 1
{1}
н/о н/о +21.6 +20.5 93 +27 +27 душно 1015.5 984.0
12 15.05 СЗ 1
{2}
н/о н/о +24.2 +20.8 81 +30 +30 очень
душно
1015.5 984.3
13 15.05 С 1
{2}
н/о н/о +25.3 +20.6 75 +31 +31 очень
душно
1015.1 984.0
14 15.05 ЮВ 1
{2}
н/о н/о +26.6 +19.2 64 +32 +32 очень
душно
1014.2 983.3
15 15.05 В 1
{2}
н/о н/о +29.5 +19.3 54 +35 +35 очень
душно
1013.2 982.6
16 15.05 В 1
{3}
н/о н/о +29.5 +18.3 51 +34 +34 очень
душно
1011.7 981.2
17 15.05 СВ 1
{3}
н/о н/о +30.8 +18.8 49 +36 +36 очень
душно
1010.7 980.3
18 15.05 ЮВ 1
{2}
н/о н/о +30.8 +17.7 46 +35 +35 очень
душно
1010.2 979.8
19 15.05 ЮВ 1
{3}
н/о н/о +30.2 +17.6 47 +34 +34 очень
душно
1010.0 979.6
20 15.05 ЮВ 1
{2}
н/о н/о +28.5 +18.3 54 +33 +33 очень
душно
1010.3 979.7
21 15.05 В 1
{2}
н/о н/о +27.0 +19.0 62 +32 +32 очень
душно
1011.0 980.2
22 15.05 В 1
{2}
н/о н/о +25.7 +19.2 67 +31 +31 очень
душно
1011.8 980.9
23 15.05 В 2
{2}
н/о н/о +25.7 +19.3 68 +31 +31 очень
душно
1012.8 981.8
00 16.05 В 2
{3}
н/о н/о +24.3 +19.8 76 +30 +30 очень
душно
1013.6 982.5
01 16.05 В 1
{3}
н/о н/о +23.8 +19.9 79 +29 +29 душно 1014.1 982.9
02 16.05 ЮВ 1
{2}
н/о н/о +23.3 +19.9 81 +30 +30 очень
душно
1014.3 983.0
03 16.05 Ю 1
{2}
н/о н/о +22.0 +20.0 88 +28 +28 душно 1014.6 983.2
04 16.05 ЮВ 1
{1}
н/о н/о +21.7 +19.9 90 +27 +27 душно 1014.4 983.0
05 16.05 ЮВ 1
{1}
н/о н/о +21.6 +19.9 90 +27 +27 душно 1014.0 982.6
06 16.05 СВ 1
{1}
н/о н/о +21.2 +19.6 91 +26 +26 душно 1013.9 982.4
07 16.05 Ю 1
{1}
н/о н/о +21.0 +19.6 92 +27 +27 душно 1014.0 982.5
08 16.05 СЗ 1
{2}
н/о н/о +20.8 +19.4 92 +26 +26 душно 1014.3 982.8
09 16.05 ЮЗ 1
{2}
н/о н/о +20.6 +19.3 92 +26 +26 душно 1014.9 983.3
10 16.05 СЗ 1
{1}
н/о н/о +21.6 +20.1 91 +27 +27 душно 1015.5 984.0
11 16.05 СЗ 1
{1}
н/о н/о +23.3 +20.5 84 +31 +31 очень
душно
1015.4 984.1
12 16.05 СЗ 1
{1}
н/о н/о +24.8 +20.5 77 +31 +31 очень
душно
1016.0 984.8
13 16.05 ЮЗ 1
{2}
н/о н/о +26.1 +20.1 70 +32 +32 очень
душно
1015.6 984.6
14 16.05 В 1
{2}
н/о н/о +28.5 +20.5 62 +35 +35 очень
душно
1014.6 983.9
15 16.05 В 1
{3}
н/о н/о +29.5 +18.8 53 +35 +35 очень
душно
1013.5 982.9
16 16.05 ЮВ 1
{3}
н/о н/о +28.6 +19.2 57 +34 +34 очень
душно
1012.6 981.9
17 16.05 ЮВ 1
{3}
н/о н/о +29.0 +19.2 55 +34 +34 очень
душно
1011.9 981.3
18 16.05 Ю 1
{3}
н/о н/о +28.3 +18.7 56 +33 +33 очень
душно
1011.7 981.0
19 16.05 ЮВ 1
{3}
н/о н/о +28.0 +19.3 59 +34 +34 очень
душно
1011.8 981.1
20 16.05 ЮВ 1
{3}
н/о н/о +27.1 +19.1 62 +33 +33 очень
душно
1012.4 981.6
21 16.05 ЮВ 1
{4}
н/о н/о +26.0 +18.8 65 +31 +31 очень
душно
1013.0 982.1
22 16.05 ЮВ 1
{2}
н/о н/о +24.4 +19.6 75 +30 +30 очень
душно
1013.8 982.7
23 16.05 ЮВ 1
{2}
н/о н/о +24.4 +19.9 76 +30 +30 очень
душно
1015.1 983.9
00 17.05 ЮВ 1
{3}
н/о н/о +23.7 +19.4 77 +29 +29 душно 1015.8 984.5
01 17.05 Ю 1
{3}
н/о н/о +22.8 +19.6 82 +29 +29 очень
душно
1015.9 984.5
02 17.05 Ю 1
{1}
н/о н/о +22.9 +19.9 83 +30 +30 очень
душно
1016.2 984.8
03 17.05 В 1
{1}
н/о н/о +22.9 +20.0 84 +30 +30 очень
душно
1015.6 984.3
04 17.05 штиль 0
{1}
н/о н/о +22.5 +20.2 87 +29 +29 очень
душно
1015.2 983.8
05 17.05 С 1
{1}
н/о н/о +22.1 +20.0 88 +28 +28 душно 1014.7 983.3
06 17.05 СЗ 1
{1}
н/о н/о +21.9 +20.1 90 +28 +28 душно 1014.2 982.8
07 17.05 В 1
{1}
н/о н/о +22.2 +19.9 87 +28 +28 душно 1013.9 982.5
08 17.05 С 1
{1}
н/о н/о +21.6 +19.8 89 +27 +27 душно 1014.4 983.0
09 17.05 штиль 0
{1}
н/о н/о +21.8 +20.1 90 +27 +27 душно 1014.8 983.4
10 17.05 СЗ 1
{1}
н/о н/о +22.4 +20.6 90 +29 +29 очень
душно
1015.2 983.8
11 17.05 С 1
{1}
н/о н/о +24.1 +20.3 79 +30 +30 очень
душно
1015.8 984.6
12 17.05 Ю 1
{2}
н/о н/о +24.7 +19.1 71 +30 +30 очень
душно
1016.2 985.0
13 17.05 ЮВ 1
{2}
н/о н/о +24.9 +19.0 70 +30 +30 душно 1016.0 984.9
14 17.05 Ю 1
{2}
н/о н/о +25.5 +19.1 68 +31 +31 очень
душно
1015.2 984.1
15 17.05 Ю 1
{2}
н/о н/о +26.4 +19.4 65 +32 +32 очень
душно
1014.4 983.5
16 17.05 ЮВ 1
{2}
н/о н/о +26.7 +19.3 64 +32 +32 очень
душно
1013.5 982.6
17 17.05 ЮВ 2
{3}
н/о н/о +23.8 +20.1 80 +29 +29 душно 1013.2 982.0
19 17.05 Ю 1
{2}
н/о н/о +24.7 +19.9 75 +30 +30 очень
душно
1012.6 981.5
20 17.05 Ю 1
{2}
н/о н/о +24.4 +20.2 77 +30 +30 очень
душно
1013.1 982.0
21 17.05 ЮВ 1
{2}
н/о н/о +23.3 +20.4 84 +31 +31 очень
душно
1013.3 982.1
22 17.05 В 1
{1}
н/о н/о +23.0 +20.1 84 +30 +30 очень
душно
1013.6 982.3
23 17.05 Ю 1
{1}
н/о н/о +22.7 +20.1 85 +29 +29 очень
душно
1014.6 983.3
00 18.05 штиль 0
{1}
н/о н/о +22.4 +20.1 87 +29 +29 очень
душно
1014.8 983.4
01 18.05 В 1
{1}
н/о н/о +22.6 +20.3 87 +29 +29 очень
душно
1014.8 983.5
02 18.05 С 1
{1}
н/о н/о +22.1 +20.2 89 +28 +28 душно 1015.3 983.9 0.2
04 18.05 СЗ 1
{2}
н/о н/о +21.6 +20.2 92 +27 +27 душно 1014.1 982.7
05 18.05 СЗ 1
{1}
н/о н/о +21.7 +20.3 92 +27 +27 душно 1013.8 982.4
06 18.05 С 1
{1}
н/о н/о +21.9 +20.5 92 +28 +28 душно 1013.3 981.9
07 18.05 С 1
{1}
н/о н/о +21.9 +20.5 92 +28 +28 душно 1013.5 982.1
08 18.05 С 1
{1}
н/о н/о +21.9 +20.5 92 +28 +28 душно 1013.8 982.4
09 18.05 штиль 0
{1}
н/о н/о +21.9 +20.5 92 +28 +28 душно 1014.8 983.4
10 18.05 З 1
{1}
н/о н/о +22.3 +20.8 91 +29 +29 очень
душно
1015.5 984.1
11 18.05 З 1
{2}
н/о н/о +24.0 +21.8 88 +31 +31 очень
душно
1015.8 984.6
12 18.05 Ю 1
{2}
н/о н/о +26.2 +20.5 71 +33 +33 очень
душно
1015.8 984.8
13 18.05 В 1
{2}
н/о н/о +26.0 +19.5 67 +31 +31 очень
душно
1015.5 984.5
15 18.05 ЮЗ 1
{2}
н/о н/о +26.4 +20.2 69 +33 +33 очень
душно
1014.3 983.4
16 18.05 ЮЗ 1
{3}
н/о н/о +28.1 +19.9 61 +34 +34 очень
душно
1013.1 982.4
17 18.05 ЮЗ 1
{2}
н/о н/о +29.8 +18.7 51 +35 +35 очень
душно
1012.0 981.5
18 18.05 ЮЗ 1
{2}
н/о н/о +30.8 +18.4 48 +36 +36 очень
душно
1011.4 981.0
19 18.05 ЮВ 1
{3}
н/о н/о +29.9 +17.2 46 +34 +34 очень
душно
1011.3 980.8
20 18.05 ЮВ 1
{2}
н/о н/о +28.9 +18.7 54 +34 +34 очень
душно
1011.7 981.1
21 18.05 В 1
{2}
н/о н/о +26.4 +19.5 66 +32 +32 очень
душно
1012.4 981.5
22 18.05 В 1
{2}
н/о н/о +24.8 +19.6 73 +30 +30 душно 1013.3 982.2
23 18.05 штиль 0
{1}
н/о н/о +24.0 +19.7 77 +29 +29 душно 1014.1 982.9
00 19.05 ЮВ 1
{1}
н/о н/о +23.4 +19.9 81 +30 +30 очень
душно
1014.6 983.3
01 19.05 Ю 1
{1}
н/о н/о +23.4 +19.8 80 +30 +30 очень
душно
1015.1 983.8
02 19.05 Ю 1
{2}
н/о н/о +23.1 +19.8 82 +30 +30 очень
душно
1015.3 984.0
03 19.05 ЮВ 1
{1}
н/о н/о +22.9 +19.9 83 +30 +30 очень
душно
1015.4 984.1
04 19.05 ЮВ 1
{2}
н/о н/о +22.4 +20.0 86 +29 +29 очень
душно
1015.1 983.7
05 19.05 Ю 1
{2}
н/о н/о +21.9 +20.0 89 +28 +28 душно 1014.6 983.2
06 19.05 штиль 0
{1}
н/о н/о +21.6 +19.9 90 +27 +27 душно 1014.4 983.0
07 19.05 штиль 0
{1}
н/о н/о +21.1 +19.5 91 +26 +26 душно 1014.3 982.8
08 19.05 С 1
{1}
н/о н/о +20.3 +19.0 92 +25 +25 комфорт 1014.8 983.2
09 19.05 ЮЗ 1
{1}
н/о н/о +20.0 +18.8 93 +25 +25 комфорт 1015.2 983.6
10 19.05 СВ 1
{1}
н/о н/о +22.3 +20.8 91 +29 +29 очень
душно
1015.6 984.2
11 19.05 Ю 1
{1}
н/о н/о +23.3 +20.1 82 +30 +30 очень
душно
1016.1 984.8
12 19.05 ЮВ 1
{2}
н/о н/о +24.1 +20.1 78 +30 +30 очень
душно
1016.5 985.3
13 19.05 Ю 2
{3}
н/о н/о +26.0 +18.7 64 +31 +31 очень
душно
1016.1 985.1
14 19.05 Ю 1
{3}
н/о н/о +26.5 +19.2 64 +32 +32 очень
душно
1015.7 984.7
15 19.05 В 1
{2}
н/о н/о +28.0 +19.6 60 +34 +34 очень
душно
1014.6 983.8
16 19.05 ЮЗ 1
{2}
н/о н/о +29.1 +18.8 54 +34 +34 очень
душно
1013.3 982.7
17 19.05 В 1
{2}
н/о н/о +28.5 +19.0 56 +34 +34 очень
душно
1012.7 982.0
18 19.05 Ю 1
{2}
н/о н/о +29.8 +19.0 52 +35 +35 очень
душно
1011.9 981.4
19 19.05 ЮВ 1
{2}
н/о н/о +29.4 +18.2 51 +34 +34 очень
душно
1011.8 981.2
20 19.05 ЮВ 1
{2}
н/о н/о +28.1 +18.1 55 +33 +33 очень
душно
1012.1 981.4
21 19.05 ЮВ 1
{2}
н/о н/о +25.7 +18.7 65 +31 +31 очень
душно
1012.8 981.8
22 19.05 ЮВ 1
{2}
н/о н/о +25.0 +19.2 70 +30 +30 душно 1013.7 982.6
23 19.05 ЮВ 1
{2}
н/о н/о +24.2 +19.3 74 +29 +29 душно 1014.5 983.3
00 20.05 ЮВ 1
{1}
н/о н/о +23.2 +19.3 79 +30 +30 очень
душно
1015.4 984.1
01 20.05
{1}
н/о н/о +22.3 +19.2 83 1015.7 984.3
02 20.05 ЮВ 1
{2}
н/о н/о +22.0 +19.5 86 +28 +28 душно 1016.1 984.7
03 20.05 ЮВ 1
{1}
н/о н/о +22.0 +20.0 88 +28 +28 душно 1015.8 984.4
04 20.05 ЮВ 1
{1}
н/о н/о +22.3 +20.4 89 +29 +29 очень
душно
1015.2 983.8
05 20.05 Ю 1
{1}
н/о н/о +22.3 +20.5 90 +29 +29 очень
душно
1014.6 983.2
06 20.05 Ю 1
{1}
н/о н/о +22.0 +20.3 90 +28 +28 душно 1014.2 982.8
07 20.05 Ю 1
{1}
н/о н/о +22.0 +20.4 91 +28 +28 душно 1014.3 982.9
08 20.05 Ю 1
{2}
н/о н/о +21.9 +20.3 91 +28 +28 душно 1014.6 983.2
09 20.05 Ю 1
{2}
н/о н/о +21.6 +20.0 91 +27 +27 душно 1015.1 983.6
10 20.05 ЮВ 1
{1}
н/о н/о +21.6 +19.4 87 +27 +27 душно 1016.0 984.5
11 20.05 СЗ 1
{1}
н/о н/о +24.8 +20.3 76 +31 +31 очень
душно
1016.4 985.2
12 20.05 В 1
{1}
н/о н/о +26.5 +20.1 68 +33 +33 очень
душно
1016.4 985.4
13 20.05 В 1
{2}
н/о н/о +26.7 +18.9 62 +32 +32 очень
душно
1016.1 985.1
14 20.05 СВ 1
{2}
н/о н/о +28.5 +19.1 57 +34 +34 очень
душно
1015.3 984.5
15 20.05 В 2
{3}
н/о н/о +29.3 +18.2 51 +34 +34 очень
душно
1014.1 983.5
16 20.05 В 2
{3}
н/о н/о +30.8 +19.1 50 +36 +36 очень
душно
1012.9 982.4
17 20.05 В 1
{3}
н/о н/о +32.2 +17.8 42 +36 +36 очень
душно
1011.7 981.4
18 20.05 В 1
{3}
н/о н/о +30.8 +17.6 45 +35 +35 очень
душно
1011.5 981.1
19 20.05 ЮВ 1
{3}
н/о н/о +29.9 +18.6 51 +35 +35 очень
душно
1011.6 981.1
20 20.05 В 1
{2}
н/о н/о +29.5 +19.4 55 +35 +35 очень
душно
1012.0 981.4
21 20.05 В 2
{3}
н/о н/о +26.9 +19.6 64 +33 +33 очень
душно
1012.7 981.9
22 20.05 В 1
{3}
н/о н/о +26.0 +19.7 68 +32 +32 очень
душно
1013.4 982.4
23 20.05 В 1
{2}
н/о н/о +25.2 +19.8 72 +31 +31 очень
душно
1014.3 983.2
00 21.05 В 2
{2}
н/о н/о +24.5 +20.2 77 +30 +30 очень
душно
1014.8 983.7
01 21.05 В 1
{2}
н/о н/о +24.0 +20.4 80 +30 +30 очень
душно
1015.1 983.9
02 21.05 В 1
{2}
н/о н/о +23.5 +20.5 83 +29 +29 душно 1015.3 984.0
03 21.05 В 2
{3}
н/о н/о +23.5 +20.5 83 +29 +29 душно 1015.5 984.2
04 21.05 ЮВ 1
{3}
н/о н/о +22.9 +20.3 85 +30 +30 очень
душно
1015.2 983.9
05 21.05 Ю 1
{2}
н/о н/о +22.3 +20.3 88 +29 +29 очень
душно
1014.8 983.4
06 21.05 ЮВ 1
{1}
н/о н/о +22.2 +20.5 90 +29 +29 очень
душно
1014.1 982.7
07 21.05 ЮВ 1
{1}
н/о н/о +22.1 +20.4 90 +28 +28 душно 1013.8 982.4
08 21.05 ЮВ 1
{1}
н/о н/о +22.1 +20.5 91 +28 +28 душно 1014.1 982.7
09 21.05 Ю 1
{2}
н/о н/о +22.3 +20.7 91 +29 +29 очень
душно
1014.7 983.3
10 21.05 ЮВ 1
{2}
н/о н/о +22.8 +21.1 90 +30 +30 очень
душно
1015.5 984.2
11 21.05 ЮВ 1
{2}
н/о н/о +24.5 +21.4 83 +31 +31 очень
душно
1016.1 984.9
12 21.05 ЮВ 1
{2}
н/о н/о +25.2 +20.8 77 +32 +32 очень
душно
1016.4 985.3
13 21.05 ЮЗ 1
{2}
н/о н/о +26.5 +19.7 66 +32 +32 очень
душно
1016.3 985.3
14 21.05 В 1
{2}
н/о н/о +27.8 +19.6 61 +34 +34 очень
душно
1015.6 984.8
15 21.05 СВ 1
{2}
н/о н/о +28.6 +20.1 60 +35 +35 очень
душно
1014.5 983.8
16 21.05 СВ 1
{2}
н/о н/о +30.7 +19.3 51 +36 +36 очень
душно
1013.4 982.9
17 21.05 Ю 1
{3}
н/о н/о +29.4 +19.2 54 +35 +35 очень
душно
1012.5 981.9
18 21.05 СВ 1
{3}
н/о н/о +31.4 +18.5 46 +36 +36 очень
душно
1011.9 981.5
19 21.05 ЮВ 1
{2}
н/о н/о +29.0 +17.8 51 +33 +33 очень
душно
1012.0 981.4
20 21.05 В 1
{2}
н/о н/о +28.7 +18.2 53 +33 +33 очень
душно
1012.5 981.8
21 21.05 В 1
{2}
н/о н/о +26.9 +18.6 60 +32 +32 очень
душно
1013.0 982.2
22 21.05 В 1
{1}
н/о н/о +25.9 +19.0 66 +31 +31 очень
душно
1013.8 982.8
23 21.05 В 1
{2}
н/о н/о +25.7 +20.1 71 +32 +32 очень
душно
1014.6 983.6
00 22.05 В 2
{2}
н/о н/о +25.0 +20.8 78 +31 +31 очень
душно
1015.4 984.3
01 22.05 В 1
{2}
н/о н/о +24.0 +20.8 82 +30 +30 очень
душно
1015.7 984.5
02 22.05 Ю 1
{2}
н/о н/о +22.5 +20.0 86 +29 +29 очень
душно
1015.9 984.5
03 22.05 Ю 1
{1}
н/о н/о +22.0 +20.0 88 +28 +28 душно 1016.0 984.6
04 22.05 штиль 0
{1}
н/о н/о +22.0 +20.2 90 +28 +28 душно 1015.6 984.2
05 22.05 В 1
{1}
н/о н/о +21.9 +20.3 91 +28 +28 душно 1015.2 983.8
06 22.05 СЗ 1
{1}
н/о н/о +21.6 +20.0 91 +27 +27 душно 1014.7 983.3
08 22.05 штиль 0
{1}
н/о н/о +21.6 +20.2 92 +27 +27 душно 1014.9 983.4
09 22.05 ЮВ 1
{1}
н/о н/о +21.6 +20.3 92 +27 +27 душно 1015.3 983.8
10 22.05 штиль 0
{1}
н/о н/о +22.5 +21.0 91 +29 +29 очень
душно
1015.8 984.4

 

Местоположение метеостанции Итапетинга (Баия, Бразилия): широта -15.25 долгота -40.23 высота над уровнем моря 271 м.

В архиве по умолчанию представлена погода в Итапетинге за последнюю неделю. Архивные данные за месяц целиком и за предыдущие месяцы, начиная с января 2011 года, Вы можете получить, выбрав интересующий диапазон дат из раскрывающегося списка и нажав кнопку "Ввод!".


*Определитесь, кто Вы:
робот инопланетянин человек

Внимание! Время в таблицах - всемирное. Для получения местного времени необходимо прибавить поправку, которая равна -3 ч.

Смотрите также архив погоды в соседних городах и на ближайших метеорологических станциях:

Погода в Витория-да-Конкисте (Баия, Бразилия) (74 км)
Погода в Витория-да-Конкисте (Баия, Бразилия) (77 км)
Погода в Альменаре (Минас-Жерайс, Бразилия) (113 км)
Погода в Уне (Баия, Бразилия) (123 км)
Погода в Ильеусе (Баия, Бразилия) (132 км)
Погода в Ипиау (Баия, Бразилия) (133 км)
Погода в Ильеусе (Баия, Бразилия) (138 км)
Погода в Педра-Азуле (Минас-Жерайс, Бразилия) (140 км)
Погода в Агуас-Вермельясе (Минас-Жерайс, Бразилия) (142 км)
Погода в Бельмонте (Баия, Бразилия) (142 км)

Пояснения к столбцам:

Ветер - указаны скорость ветра в м/с - средняя за 10 мин, порывы в срок и между сроками (в фигурных скобках) и направление, откуда дует ветер: С - северный, СВ - северо-восточный, В - восточный, ЮВ - юго-восточный, Ю - южный, ЮЗ - юго-западный, З - западный, СЗ - северо-западный.
Видимость - горизонтальная дальность видимости в метрах или километрах. При видимости от 1 до 10 км при отсутствии осадков обычно наблюдается дымка, при ухудшении видимости до 1 км и менее - туман. В сухую погоду видимость может ухудшаться дымом, пылью или мглою.
Явления - указаны атмосферные явления, наблюдавшиеся в срок или в последний час перед сроком; фигурными скобками обозначены явления, наблюдавшиеся между сроками (за 1-3 часа до срока); квадратными скобками обозначены град или гололедные отложения с указанием их диаметра в мм.
Облачность - указаны через наклонную черту общая и нижняя облачность в баллах и высота нижней границы облаков в метрах; квадратными скобками обозначены формы облаков: Ci - перистые, Cs - перисто-слоистые, Cc - перисто-кучевые, Ac - высококучевые, As - высокослоистые, Sc - слоисто-кучевые, Ns - слоисто-дождевые, Cu - кучевые, Cb - кучево-дождевые. Подробнее классификацию облаков см. в Атласе облаков (PDF).
T - Температура воздуха - температура, измеренная на высоте 2 м над землей.
Td - Температура точки росы - температура, при понижении до которой содержащийся в воздухе водяной пар достигнет насыщения.
f - Относительная влажность воздуха - влажноcть воздуха, измеренная на высоте 2 м над землей.
Te - Эффективная температура - температура, которую ощущает одетый по сезону человек в тени. Характеристика душности погоды. При расчете учитывается влияние влажности воздуха и скорости ветра на теплоощущения человека.
Tes - Эффективная температура на солнце - температура, которую ощущает человек, с поправкой на солнечный нагрев. Характеристика знойности погоды. Зависит от высоты солнца над горизонтом, облачности и скорости ветра. Ночью, в пасмурную погоду, а также при ветре 12 м/с и более поправка равна нулю.
P - Атмосферное давление - приведенное к уровню моря атмосферное давление.
Po - Атмосферное давление - измеренное на уровне метеостанции атмосферное давление.
Tmin - Минимальная температура - минимум температуры воздуха на высоте 2 м над землей.
Tmax - Максимальная температура - максимум температуры воздуха на высоте 2 м над землей.
R - Количество осадков - Количество выпавших осадков за период времени, мм. При наведении курсора мыши на число - период времени, за который выпало указанное количество осадков.
R24 - Количество осадков - Количество выпавших осадков за 24 часа, мм.
S - Снежный покров - Высота снежного покрова, см. При наведении курсора мыши на число - состояние снежного покрова и степень покрытия местности в баллах.